Regional Weather Roundup
Issued by NWS New Orleans/Baton Rouge, LA

Home | Current Version | Previous Version | Text Only | Print | Product List | Glossary On
Versions: 1 2 3 4 5 6 7 8 9 10 11 12 13 14 15 16 17 18 19 20 21 22 23 24 25 26 27 28 29 30 31 32 33 34 35 36 37 38 39 40 41 42 43 44 45 46 47 48 49 50
000
ASUS44 KLIX 271112
RWRLIX
NEW ORLEANS REGIONAL WEATHER ROUNDUP
NATIONAL WEATHER SERVICE NEW ORLEANS LA
600 AM CDT FRI MAY 27 2016

NOTE: "FAIR" INDICATES FEW OR NO CLOUDS BELOW 12,000 FEET WITH NO
      SIGNIFICANT WEATHER AND/OR OBSTRUCTIONS TO VISIBILITY.
      SKY/WX - SKY CONDITION AND SIGNIFICANT WEATHER.
      TMP - AIR TEMPERATURE.     DP    - DEWPOINT TEMPERATURE.
      RH  - RELATIVE HUMIDITY.   PRES  - PRESSURE.
      HI  - HEAT INDEX.          WCI   - WIND CHILL INDEX.

*  THESE STATIONS ARE NOT NWS OR FAA STATIONS AND ARE NOT UNDER
   NWS QUALITY CONTROL.

LAZ038-040-048-061>063-065>067-069-271200-
SOUTHEAST LOUISIANA

CITY           SKY/WX    TMP DP  RH WIND       PRES   REMARKS
N.O. AUDUBON   NOT AVBL
N.O. INTL ARPT CLOUDY    77  72  84 SE8       29.94S
N.O. LAKEFRONT CLOUDY    78  72  81 SE12      29.96R
N.O. DOWNTOWN*   N/A     78  73  84 VRB6      29.96R
RESERVE*         N/A     77  73  86 SE6       29.95R
SLIDELL        CLOUDY    77  73  87 SE7       29.95S
BATON ROUGE    MOCLDY    76  71  85 E7        29.93R
BOOTHVILLE     CLOUDY    75  70  84 SE6       29.97R
BELLE CHASSE   MOCLDY    77  73  87 SE6       29.95R
BOGALUSA*        N/A     75  71  86 CALM      29.98R
GALLIANO*      CLOUDY    78  71  77 SE7       29.94S
NEW ROADS*       N/A     74  72  92 SE6       29.92S
GONZALES*        N/A     75  73  92 CALM      29.93S
HAMMOND*       CLOUDY    75  70  83 CALM      29.95R
HOUMA*         CLOUDY    78  72  82 SE13      29.94R
PORT FOURCHON* MOSUNNY   79  70  73 SE15G22   29.94S

$$

MSZ070-080>082-271200-
SOUTHERN MISSISSIPPI

CITY           SKY/WX    TMP DP  RH WIND       PRES   REMARKS
MCCOMB         PTCLDY    73  71  93 S6        29.97R
GULFPORT       CLOUDY    79  69  71 S7        29.97R
BILOXI         CLOUDY    79  70  74 S7        29.98R
PASCAGOULA     MOCLDY    71  70  96 N3        29.99R

$$

COASTAL OBSERVATIONS
LAKE AND NEARSHORE STATIONS

STATION/POSITION TIME  TEMP    WIND        PRES    WAVE
                       AIR SEA DIR/SP/G            HT/PER
                 (UTC) (F)     (DEG/KT/KT) (MB)    (FT/S)
PASCAGOULA       1000   79     150/  8/ 11 1014.7
WAVELAND YACHT   1000   79 80  180/ 12/ 18 1014.5
GRAND ISLE       1000   79 82  160/ 11/ 17 1013.8
SOUTHWEST PASS   1000          140/  6/ 13   N/A
NEW CANAL        1000   78 80  150/  3/  5 1013.2
SHELL BEACH      1000   77 81  150/ 11/ 15 1014.3

OFFSHORE STATIONS

STATION/POSITION TIME  TEMP    WIND        PRES    WAVE
                       AIR SEA DIR/SP/G            HT/PER
                 (UTC) (F)     (DEG/KT/KT) (MB)    (FT/S)
64 S DAUPHIN ISL 1000   78 79  140/ 10/ 14 1015.0

$$




USA.gov is the U.S. government's official web portal to all federal, state and local government web resources and services.